FREGAT DEB, 45614

Orbit data source: Space-Track

FREGAT DEB, 45614 is space debris in LEO originally from a launch on Mon, 18 Jul 2011 UTC launched from the Tyuratam Missile And Space Complex (TTMTR). Debris objects in space refer to the collection of defunct objects orbiting the Earth. Examples of debris include non-operational satellites, rocket bodies, and fragments generated from explosions, collisions, or faulty payload assembly.

Loading next visibility...
FREGAT DEB details
Identifier
45614, 2011-037H
Orbit
LEO
Last TLE update20 hours ago
Origin
Flag of CISVVKO VKS (CIS)
ManufacturerLavochkin
MissionSpacecraft
Bus & MotorUnknown
MassUnknown
Launch date (UTC)
2011-07-18 (13 years ago)
Launch vehicleUnknown
Launch site
Tyuratam Missile And Space Complex (TTMTR)
Object type
Payload
Rocket body
Debris
Shape & HBRUnknown
Radar Cross SectionMedium (>0.1 m² and <1 m²)

Expand to show TLE details & history

TLE from 20 hours ago
0 FREGAT DEB
1 45614U 11037H   24360.85255602  .00127130  00000-0  64226-1 0  9995
2 45614  51.2155  55.3477 0680416 356.1406   3.4395 13.35236743200443
Epoch: 2024-12-25T20:27Z
Definitive object data (Epoch: 2024-12-25T20:27:40.84Z)
Latitude-0.00002°
Longitude13.58716°
Altitude618.119 km
Speed7.803 km/s
True Right ascension03h 41m 23s
True Declination0° 00' 00"
Sunlit
Object was in full shadow at TLE epoch
Visualization TLE readout
Latitude-29.9444°
Longitude-16.7354°
Altitude720.385 km
Speed7.7 km/s
Apparent Right ascension02h 26m 28s
Apparent Declination-35° 11' 37"
Sunlit
Object is in daylight
Visualization observer readout
Local Sidereal Time15:24:59
Azimuth72.435° E
Elevation-77.498°
Doppler factor1
Orbital elements
Apogee altitude1,638.306 km
Perigee altitude616.901 km
Semi-major axis7,505.74 km
Eccentricity0.0680416
Inclination51.2155°
RAAN55.3477°
Arg. of periapsis356.1406°
True anomaly3.95049°
Mean anomaly3.4395°
Eccentric anomaly3.69043°
Mean motion3.33774 °/min
BSTAR0.064226
Orbital period107.86 mins
Loading maneuver chart data...
Loading historical data...
Loading historical data...
Loading historical data...
Loading historical data...
Loading historical data...
Loading historical data...
Loading historical data...

FREGAT DEB Visibility forecast

Observer location: undefined°, undefined

Span
Click to sort rows by Start time (UTC) header in descending order
Start Az.
Max El. time (UTC)
Max El. Az.
Max El.
End time (UTC)
End Az.
6 mins2024-12-27 04:55:53.203Z159.793° S2024-12-27 04:58:53.203Z120.019° SE15.732°2024-12-27 05:01:53.203Z85.426° E
9 mins2024-12-27 06:46:53.203Z235.998° WSW2024-12-27 06:49:53.203Z253.183° W43.909°2024-12-27 06:55:53.203Z52.926° ENE
10 mins2024-12-27 08:39:53.203Z290.773° WNW2024-12-27 08:43:53.203Z347.972° N29.842°2024-12-27 08:49:53.203Z51.207° ENE
12 mins2024-12-27 10:33:53.203Z315.915° NNW2024-12-27 10:38:53.203Z20.818° NNE30.588°2024-12-27 10:45:53.203Z77.476° E
14 mins2024-12-27 12:26:53.203Z311.464° NW2024-12-27 12:32:53.203Z53.589° ENE43.354°2024-12-27 12:40:53.203Z116.392° SE
14 mins2024-12-27 14:19:53.203Z287.993° WNW2024-12-27 14:25:53.203Z224.351° SW34.107°2024-12-27 14:33:53.203Z164.009° S
|